Location: Amsterdam
(30.7274°N, 84.4357°W)
Time: 18:56:43
(UTC+00:00)

Altair - Pass Details

Date: 10 August 2024
Orbit: 1501 x 1682 km, 47.2° (Epoch: 07 September)

Event Time Altitude Azimuth Distance (km) Brightness Sun altitude
Rises 18:27:58 0° 257° (WSW) 4,891 10.3 71.4°
Reaches altitude 10° 18:31:23 10° 263° (W) 3,885 10.0 71.0°
Maximum altitude 18:40:44 45° 334° (NNW) 2,092 8.8 69.6°
Drops below altitude 10° 18:49:47 10° 45° (NE) 3,755 9.4 68.2°
Sets 18:53:03 0° 52° (NE) 4,716 9.8 67.7°
